Location: Celina Division
(33.3022°N, 96.7580°W)
Time: 05:22:45
(UTC+00:00)

ISS - Visible Passes

Search period start: 09 December 2022 00:00
Search period end: 19 December 2022 00:00
Orbit: 414 x 420 km, 51.6° (Epoch: 08 December)

Date Brightness Start Highest point End Pass type
(mag) Time Alt. Az. Time Alt. Az. Time Alt. Az.
10 Dec -0.3 00:43:17 10° WSW 00:44:33 12° SW 00:45:48 10° SSW visible
10 Dec -0.8 23:53:49 10° WNW 23:56:28 22° SW 23:59:08 10° S visible
14 Dec 0.0 12:33:55 10° SE 12:35:03 11° SE 12:36:11 10° ESE visible
16 Dec -2.2 12:31:42 10° SSW 12:34:50 38° SE 12:37:59 10° ENE visible
17 Dec -1.0 11:44:05 10° S 11:46:37 20° SE 11:49:08 10° E visible
18 Dec -0.4 10:57:48 10° SE 10:58:25 10° SE 10:59:02 10° ESE visible
18 Dec -3.7 12:31:28 10° WSW 12:34:46 55° NW 12:38:04 10° NE visible
